QPF
0.02 0.02 0.01 0.02 0.03 0.04 0.05 0.06 0.06 0.05 0.05 0.04 0.04 0.04 0.03 0.02 0.02 0.02 0.02 0.02 0.02 0.02 0.02 0.02 0.02 0.03 0.03 0.03 0.03 0.03 0.03 0.03 0.03 0.02 0.01 0.01 0.01 0.01 0.01 0.02 0.03 0.03 0.03
0.03 0.03 0.03 0.03 0.04 0.05 0.05 0.07 0.08 0.08 0.07 0.07 0.06 0.05 0.03 0.03 0.02 0.02 0.01 0.02 0.02 0.02 0.02 0.02 0.02 0.02 0.02 0.03 0.02 0.02 0.02 0.02 0.02 0.02 0.02 0.01 0.01 0.01 0.01 0.02 0.03 0.03 0.03
0.02 0.02 0.02 0.02 0.03 0.04 0.05 0.06 0.07 0.09 0.09 0.09 0.10 0.08 0.07 0.05 0.04 0.03 0.02 0.02 0.02 0.02 0.01 0.01 0.01 0.01 0.01 0.01 0.01 0.02 0.01 0.01 0.02 0.02 0.02 0.02 0.01 0.01 0.01 0.02 0.02 0.03 0.03
0.01 0.01 0.02 0.02 0.02 0.03 0.03 0.04 0.06 0.07 0.08 0.08 0.09 0.10 0.10 0.10 0.08 0.07 0.05 0.04 0.03 0.02 0.02 0.01 0.01 0.01 0.01 0.01 0.01 0.01 0.01 0.01 0.01 0.02 0.02 0.02 0.01 0.01 0.02 0.02 0.03 0.03 0.03
0.01 0.01 0.01 0.01 0.02 0.02 0.03 0.04 0.04 0.05 0.06 0.07 0.07 0.08 0.08 0.09 0.09 0.08 0.07 0.06 0.05 0.04 0.03 0.02 0.01 0.01 0.01 0.01 0.01 0.01 0.01 0.01 0.02 0.02 0.02 0.02 0.01 0.01 0.02 0.04 0.04 0.03 0.03
0.01 0.01 0.01 0.01 0.02 0.02 0.03 0.04 0.05 0.05 0.04 0.05 0.05 0.06 0.07 0.09 0.09 0.08 0.06 0.05 0.05 0.04 0.04 0.03 0.03 0.03 0.02 0.02 0.01 0.01 0.01 0.01 0.02 0.02 0.02 0.01 0.01 0.01 0.02 0.04 0.04 0.04 0.03
0.01 0.01 0.01 0.02 0.02 0.03 0.03 0.03 0.05 0.05 0.04 0.04 0.03 0.04 0.05 0.07 0.08 0.08 0.07 0.06 0.05 0.04 0.04 0.03 0.03 0.03 0.03 0.02 0.02 0.01 0.01 0.01 0.01 0.01 0.01 0.01 0.02 0.02 0.03 0.06 0.06 0.04 0.03
0.01 0.01 0.01 0.01 0.02 0.02 0.03 0.03 0.04 0.04 0.04 0.04 0.04 0.04 0.03 0.03 0.04 0.04 0.05 0.05 0.05 0.06 0.05 0.05 0.05 0.04 0.04 0.04 0.03 0.03 0.03 0.03 0.03 0.02 0.02 0.02 0.02 0.03 0.04 0.06 0.07 0.04 0.03
0.01 0.02 0.02 0.02 0.01 0.02 0.02 0.03 0.03 0.03 0.03 0.03 0.03 0.03 0.04 0.04 0.04 0.03 0.03 0.03 0.04 0.05 0.05 0.06 0.06 0.05 0.06 0.07 0.06 0.07 0.07 0.07 0.07 0.07 0.07 0.06 0.06 0.05 0.05 0.06 0.06 0.04 0.03
0.01 0.01 0.02 0.01 0.01 0.01 0.01 0.02 0.03 0.03 0.03 0.03 0.02 0.02 0.02 0.03 0.04 0.03 0.03 0.03 0.03 0.03 0.04 0.04 0.05 0.05 0.06 0.06 0.06 0.06 0.06 0.06 0.06 0.06 0.06 0.05 0.05 0.05 0.05 0.05 0.05 0.05 0.04
0.01 0.01 0.01 0.01 0.01 0.01 0.01 0.01 0.02 0.02 0.02 0.02 0.02 0.02 0.01 0.02 0.02 0.02 0.03 0.02 0.02 0.03 0.03 0.03 0.03 0.04 0.05 0.05 0.05 0.06 0.06 0.06 0.06 0.06 0.05 0.04 0.03 0.03 0.03 0.03 0.03 0.04 0.03
0.01 0.01 0.01 0.01 0.01 0.01 0.02 0.02 0.02 0.02 0.02 0.02 0.02 0.02 0.01 0.01 0.02 0.02 0.02 0.02 0.02 0.02 0.02 0.03 0.03 0.04 0.04 0.04 0.03 0.03 0.04 0.05 0.05 0.05 0.04 0.04 0.04 0.03 0.03 0.04 0.04 0.03 0.03
0.00 0.00 0.01 0.00 0.01 0.01 0.02 0.02 0.02 0.02 0.02 0.02 0.02 0.02 0.02 0.01 0.01 0.01 0.01 0.01 0.01 0.01 0.01 0.02 0.02 0.02 0.03 0.03 0.03 0.03 0.03 0.03 0.04 0.03 0.03 0.03 0.02 0.02 0.02 0.02 0.02 0.02 0.02
0.00 0.00 0.00 0.00 0.00 0.00 0.01 0.01 0.02 0.02 0.01 0.01 0.01 0.01 0.01 0.01 0.01 0.01 0.01 0.01 0.01 0.01 0.01 0.01 0.01 0.01 0.02 0.02 0.02 0.02 0.02 0.02 0.02 0.02 0.02 0.02 0.02 0.02 0.01 0.01 0.01 0.01 0.01
0.00 0.00 0.00 0.00 0.00 0.00 0.00 0.00 0.01 0.01 0.01 0.01 0.01 0.01 0.01 0.01 0.01 0.01 0.01 0.01 0.01 0.01 0.01 0.01 0.01 0.01 0.01 0.01 0.01 0.02 0.02 0.02 0.02 0.02 0.02 0.02 0.01 0.01 0.01 0.01 0.01 0.01 0.01
0.00 0.00 0.00 0.00 0.00 0.00 0.00 0.00 0.00 0.01 0.01 0.01 0.01 0.01 0.01 0.01 0.01 0.01 0.01 0.01 0.01 0.01 0.01 0.01 0.01 0.01 0.01 0.01 0.01 0.01 0.02 0.02 0.02 0.02 0.02 0.02 0.02 0.01 0.01 0.01 0.01 0.01 0.01
0.00 0.00 0.00 0.00 0.00 0.00 0.00 0.00 0.00 0.00 0.00 0.00 0.01 0.01 0.01 0.01 0.01 0.01 0.01 0.01 0.01 0.01 0.01 0.01 0.01 0.01 0.01 0.01 0.01 0.01 0.01 0.01 0.01 0.01 0.01 0.01 0.01 0.01 0.01 0.01 0.01 0.01 0.01
0.00 0.00 0.00 0.00 0.00 0.00 0.00 0.00 0.00 0.00 0.00 0.00 0.00 0.00 0.00 0.00 0.01 0.01 0.01 0.01 0.01 0.01 0.01 0.01 0.01 0.01 0.01 0.01 0.01 0.01 0.01 0.01 0.01 0.01 0.01 0.01 0.01 0.01 0.01 0.01 0.01 0.01 0.01
0.01 0.01 0.01 0.01 0.00 0.00 0.00 0.00 0.00 0.00 0.00 0.00 0.00 0.00 0.00 0.00 0.01 0.01 0.01 0.01 0.01 0.01 0.01 0.01 0.01 0.01 0.01 0.01 0.01 0.01 0.01 0.01 0.01 0.01 0.01 0.01 0.01 0.01 0.01 0.01 0.01 0.01 0.01
0.01 0.01 0.01 0.01 0.01 0.01 0.01 0.01 0.01 0.01 0.01 0.01 0.01 0.01 0.01 0.01 0.01 0.01 0.01 0.01 0.01 0.01 0.01 0.01 0.01 0.01 0.01 0.01 0.01 0.01 0.01 0.01 0.01 0.01 0.01 0.01 0.01 0.01 0.01 0.01 0.01 0.01 0.01
0.02 0.02 0.01 0.01 0.01 0.01 0.01 0.01 0.01 0.01 0.01 0.01 0.01 0.01 0.01 0.01 0.01 0.00 0.00 0.01 0.01 0.01 0.01 0.01 0.01 0.01 0.01 0.01 0.01 0.01 0.01 0.01 0.01 0.01 0.01 0.01 0.01 0.01 0.01 0.01 0.01 0.01 0.01
0.01 0.01 0.01 0.01 0.01 0.01 0.01 0.01 0.01 0.01 0.01 0.01 0.01 0.01 0.01 0.01 0.01 0.01 0.01 0.01 0.01 0.01 0.01 0.01 0.01 0.01 0.01 0.01 0.01 0.01 0.01 0.01 0.01 0.01 0.01 0.01 0.01 0.01 0.01 0.01 0.01 0.01 0.01
0.01 0.01 0.01 0.01 0.01 0.01 0.01 0.01 0.01 0.01 0.01 0.01 0.01 0.01 0.01 0.01 0.01 0.01 0.01 0.01 0.01 0.01 0.01 0.01 0.01 0.01 0.01 0.01 0.01 0.01 0.01 0.01 0.01 0.01 0.02 0.02 0.01 0.01 0.01 0.01 0.01 0.01 0.01
0.01 0.01 0.01 0.01 0.01 0.01 0.01 0.01 0.01 0.01 0.01 0.01 0.01 0.01 0.01 0.01 0.01 0.01 0.01 0.01 0.01 0.01 0.01 0.01 0.01 0.01 0.01 0.01 0.01 0.01 0.01 0.01 0.01 0.02 0.02 0.02 0.02 0.02 0.02 0.02 0.01 0.01 0.02
0.01 0.01 0.01 0.00 0.01 0.01 0.01 0.01 0.01 0.01 0.01 0.01 0.01 0.01 0.01 0.01 0.01 0.01 0.01 0.01 0.01 0.01 0.01 0.01 0.01 0.01 0.01 0.01 0.01 0.01 0.01 0.01 0.01 0.02 0.02 0.02 0.02 0.02 0.02 0.02 0.02 0.02 0.02
0.01 0.01 0.01 0.01 0.01 0.01 0.01 0.01 0.01 0.01 0.01 0.01 0.01 0.01 0.01 0.01 0.01 0.01 0.01 0.01 0.01 0.01 0.01 0.01 0.01 0.01 0.01 0.01 0.01 0.01 0.01 0.01 0.02 0.02 0.02 0.03 0.02 0.02 0.02 0.03 0.03 0.03 0.03
MSLP
1020.68 1021.35 1021.94 1022.45 1022.89 1023.28 1023.65 1024.00 1024.36 1024.72 1025.08 1025.42 1025.74 1026.02 1026.27 1026.50 1026.74 1026.99 1027.28 1027.62 1027.99 1028.37 1028.73 1029.06 1029.31 1029.49 1029.59 1029.64 1029.68 1029.76 1029.90 1030.14 1030.46 1030.85 1031.28 1031.66 1031.95 1032.10 1032.06 1031.84 1031.44 1030.91 1030.31
1020.13 1020.87 1021.54 1022.12 1022.64 1023.11 1023.53 1023.94 1024.33 1024.72 1025.08 1025.42 1025.72 1025.99 1026.23 1026.47 1026.72 1027.00 1027.34 1027.72 1028.13 1028.56 1028.97 1029.32 1029.60 1029.80 1029.92 1029.98 1030.03 1030.12 1030.27 1030.51 1030.83 1031.22 1031.63 1031.99 1032.25 1032.37 1032.30 1032.04 1031.61 1031.06 1030.44
1019.45 1020.26 1021.01 1021.68 1022.28 1022.82 1023.33 1023.80 1024.25 1024.66 1025.05 1025.39 1025.68 1025.94 1026.17 1026.41 1026.67 1026.97 1027.33 1027.75 1028.21 1028.68 1029.13 1029.53 1029.85 1030.08 1030.23 1030.32 1030.40 1030.51 1030.68 1030.92 1031.25 1031.62 1032.01 1032.34 1032.57 1032.64 1032.54 1032.25 1031.81 1031.24 1030.62
1018.60 1019.48 1020.29 1021.04 1021.73 1022.37 1022.96 1023.52 1024.04 1024.51 1024.93 1025.29 1025.59 1025.85 1026.08 1026.31 1026.57 1026.88 1027.27 1027.71 1028.21 1028.73 1029.23 1029.68 1030.04 1030.32 1030.53 1030.67 1030.80 1030.94 1031.13 1031.39 1031.71 1032.07 1032.43 1032.73 1032.92 1032.95 1032.82 1032.52 1032.06 1031.50 1030.88
1017.54 1018.47 1019.34 1020.16 1020.94 1021.68 1022.38 1023.04 1023.65 1024.20 1024.68 1025.09 1025.42 1025.69 1025.92 1026.16 1026.43 1026.76 1027.15 1027.63 1028.16 1028.71 1029.25 1029.75 1030.18 1030.53 1030.79 1031.00 1031.18 1031.38 1031.61 1031.88 1032.21 1032.55 1032.88 1033.14 1033.29 1033.30 1033.15 1032.84 1032.40 1031.85 1031.25
1016.26 1017.22 1018.14 1019.03 1019.90 1020.73 1021.54 1022.32 1023.04 1023.69 1024.26 1024.73 1025.12 1025.43 1025.69 1025.95 1026.23 1026.58 1026.99 1027.48 1028.04 1028.63 1029.21 1029.76 1030.25 1030.66 1031.00 1031.28 1031.53 1031.78 1032.05 1032.36 1032.68 1033.02 1033.32 1033.56 1033.68 1033.68 1033.52 1033.22 1032.80 1032.28 1031.71
1014.80 1015.78 1016.74 1017.68 1018.62 1019.56 1020.47 1021.36 1022.20 1022.96 1023.64 1024.20 1024.66 1025.03 1025.35 1025.65 1025.96 1026.33 1026.77 1027.28 1027.86 1028.47 1029.09 1029.68 1030.22 1030.69 1031.10 1031.45 1031.78 1032.09 1032.41 1032.75 1033.09 1033.42 1033.71 1033.93 1034.04 1034.03 1033.88 1033.60 1033.22 1032.75 1032.23
1013.26 1014.24 1015.22 1016.20 1017.20 1018.22 1019.23 1020.22 1021.17 1022.04 1022.82 1023.48 1024.03 1024.49 1024.87 1025.23 1025.59 1026.00 1026.47 1027.00 1027.60 1028.23 1028.87 1029.49 1030.07 1030.60 1031.07 1031.49 1031.88 1032.25 1032.63 1033.00 1033.36 1033.70 1033.99 1034.20 1034.31 1034.31 1034.18 1033.95 1033.62 1033.21 1032.75
1011.75 1012.72 1013.71 1014.72 1015.76 1016.83 1017.91 1018.99 1020.02 1020.98 1021.85 1022.61 1023.24 1023.78 1024.25 1024.68 1025.11 1025.56 1026.07 1026.63 1027.24 1027.89 1028.55 1029.20 1029.80 1030.37 1030.89 1031.37 1031.82 1032.25 1032.67 1033.08 1033.47 1033.83 1034.13 1034.35 1034.47 1034.48 1034.39 1034.20 1033.93 1033.60 1033.20
1010.41 1011.36 1012.33 1013.35 1014.41 1015.50 1016.63 1017.74 1018.83 1019.85 1020.78 1021.61 1022.32 1022.94 1023.49 1024.00 1024.49 1025.01 1025.56 1026.16 1026.80 1027.47 1028.14 1028.80 1029.43 1030.02 1030.58 1031.10 1031.60 1032.08 1032.55 1033.00 1033.42 1033.80 1034.12 1034.36 1034.50 1034.54 1034.48 1034.34 1034.13 1033.86 1033.54
1009.29 1010.22 1011.18 1012.19 1013.24 1014.34 1015.46 1016.58 1017.68 1018.72 1019.67 1020.54 1021.31 1021.99 1022.60 1023.19 1023.76 1024.34 1024.95 1025.60 1026.27 1026.96 1027.65 1028.32 1028.97 1029.58 1030.16 1030.72 1031.26 1031.79 1032.30 1032.79 1033.24 1033.65 1033.99 1034.25 1034.41 1034.48 1034.46 1034.36 1034.20 1033.99 1033.73
1008.44 1009.34 1010.28 1011.26 1012.29 1013.36 1014.45 1015.54 1016.60 1017.62 1018.57 1019.44 1020.23 1020.95 1021.62 1022.27 1022.91 1023.56 1024.24 1024.94 1025.65 1026.37 1027.09 1027.78 1028.44 1029.08 1029.69 1030.28 1030.85 1031.41 1031.96 1032.49 1032.97 1033.41 1033.77 1034.05 1034.23 1034.33 1034.33 1034.27 1034.15 1033.98 1033.77
1007.80 1008.67 1009.59 1010.54 1011.54 1012.56 1013.59 1014.62 1015.62 1016.58 1017.49 1018.33 1019.12 1019.86 1020.57 1021.27 1021.97 1022.69 1023.44 1024.19 1024.96 1025.72 1026.46 1027.18 1027.87 1028.53 1029.17 1029.79 1030.40 1031.00 1031.58 1032.14 1032.66 1033.12 1033.50 1033.80 1034.00 1034.11 1034.14 1034.10 1034.00 1033.86 1033.68
1007.28 1008.14 1009.03 1009.95 1010.90 1011.87 1012.83 1013.78 1014.71 1015.59 1016.43 1017.23 1017.99 1018.73 1019.46 1020.20 1020.96 1021.74 1022.54 1023.36 1024.18 1024.99 1025.77 1026.53 1027.25 1027.95 1028.62 1029.28 1029.92 1030.55 1031.16 1031.76 1032.30 1032.79 1033.20 1033.52 1033.74 1033.86 1033.91 1033.88 1033.80 1033.67 1033.51
1006.77 1007.61 1008.47 1009.37 1010.28 1011.19 1012.09 1012.97 1013.81 1014.62 1015.39 1016.13 1016.86 1017.58 1018.32 1019.08 1019.87 1020.70 1021.55 1022.42 1023.30 1024.16 1024.99 1025.79 1026.56 1027.30 1028.01 1028.71 1029.39 1030.06 1030.71 1031.33 1031.90 1032.42 1032.85 1033.19 1033.43 1033.57 1033.63 1033.62 1033.55 1033.44 1033.29
1006.16 1006.98 1007.83 1008.70 1009.58 1010.45 1011.30 1012.12 1012.90 1013.64 1014.35 1015.04 1015.72 1016.42 1017.15 1017.92 1018.73 1019.58 1020.47 1021.38 1022.29 1023.20 1024.08 1024.93 1025.75 1026.54 1027.30 1028.04 1028.77 1029.48 1030.16 1030.82 1031.42 1031.96 1032.42 1032.79 1033.05 1033.23 1033.32 1033.33 1033.28 1033.19 1033.05
1005.40 1006.19 1007.03 1007.88 1008.75 1009.59 1010.41 1011.19 1011.93 1012.63 1013.29 1013.94 1014.59 1015.26 1015.97 1016.72 1017.52 1018.38 1019.28 1020.21 1021.15 1022.09 1023.01 1023.91 1024.78 1025.62 1026.44 1027.24 1028.01 1028.77 1029.49 1030.18 1030.82 1031.39 1031.88 1032.28 1032.58 1032.80 1032.93 1032.98 1032.98 1032.92 1032.81
1004.47 1005.25 1006.08 1006.94 1007.80 1008.64 1009.44 1010.21 1010.92 1011.60 1012.23 1012.85 1013.47 1014.11 1014.78 1015.50 1016.28 1017.12 1018.00 1018.93 1019.87 1020.83 1021.78 1022.72 1023.64 1024.54 1025.42 1026.27 1027.10 1027.90 1028.67 1029.39 1030.06 1030.67 1031.19 1031.63 1031.99 1032.25 1032.44 1032.56 1032.61 1032.60 1032.55
1003.44 1004.22 1005.05 1005.91 1006.77 1007.62 1008.43 1009.19 1009.90 1010.57 1011.19 1011.79 1012.37 1012.98 1013.61 1014.29 1015.02 1015.82 1016.66 1017.56 1018.50 1019.45 1020.42 1021.39 1022.36 1023.31 1024.24 1025.15 1026.03 1026.88 1027.70 1028.46 1029.16 1029.80 1030.36 1030.85 1031.25 1031.58 1031.84 1032.03 1032.16 1032.23 1032.24
1002.41 1003.19 1004.02 1004.89 1005.76 1006.61 1007.43 1008.20 1008.91 1009.57 1010.19 1010.76 1011.32 1011.89 1012.47 1013.10 1013.77 1014.51 1015.31 1016.16 1017.07 1018.01 1018.99 1019.98 1020.98 1021.98 1022.97 1023.93 1024.87 1025.77 1026.62 1027.42 1028.16 1028.83 1029.42 1029.95 1030.40 1030.79 1031.12 1031.39 1031.60 1031.76 1031.85
1001.46 1002.25 1003.09 1003.95 1004.82 1005.68 1006.50 1007.27 1007.98 1008.64 1009.24 1009.80 1010.32 1010.85 1011.39 1011.96 1012.57 1013.24 1013.98 1014.79 1015.66 1016.59 1017.56 1018.57 1019.61 1020.65 1021.68 1022.70 1023.69 1024.63 1025.52 1026.35 1027.11 1027.80 1028.43 1028.98 1029.48 1029.92 1030.31 1030.65 1030.94 1031.18 1031.36
1000.67 1001.47 1002.31 1003.16 1004.02 1004.86 1005.66 1006.42 1007.12 1007.76 1008.34 1008.88 1009.38 1009.87 1010.37 1010.89 1011.45 1012.06 1012.75 1013.51 1014.35 1015.26 1016.23 1017.25 1018.31 1019.39 1020.47 1021.53 1022.56 1023.54 1024.45 1025.30 1026.08 1026.79 1027.43 1028.01 1028.53 1029.01 1029.44 1029.84 1030.20 1030.51 1030.76
1000.08 1000.87 1001.69 1002.52 1003.35 1004.15 1004.92 1005.64 1006.31 1006.92 1007.49 1008.00 1008.48 1008.95 1009.42 1009.90 1010.43 1011.01 1011.66 1012.39 1013.20 1014.10 1015.07 1016.10 1017.18 1018.28 1019.39 1020.49 1021.54 1022.55 1023.48 1024.35 1025.13 1025.85 1026.49 1027.07 1027.61 1028.10 1028.56 1028.99 1029.39 1029.74 1030.05
999.66 1000.44 1001.22 1002.00 1002.77 1003.52 1004.23 1004.90 1005.52 1006.11 1006.65 1007.15 1007.62 1008.08 1008.54 1009.01 1009.53 1010.09 1010.73 1011.44 1012.24 1013.13 1014.10 1015.13 1016.22 1017.34 1018.47 1019.58 1020.65 1021.67 1022.61 1023.48 1024.27 1024.98 1025.62 1026.20 1026.73 1027.23 1027.69 1028.13 1028.54 1028.92 1029.26
999.37 1000.11 1000.84 1001.55 1002.24 1002.91 1003.55 1004.16 1004.73 1005.28 1005.80 1006.30 1006.78 1007.25 1007.72 1008.21 1008.74 1009.31 1009.95 1010.67 1011.47 1012.35 1013.31 1014.34 1015.42 1016.54 1017.67 1018.78 1019.85 1020.86 1021.81 1022.67 1023.46 1024.16 1024.80 1025.37 1025.90 1026.39 1026.85 1027.28 1027.69 1028.07 1028.41
999.16 999.83 1000.48 1001.11 1001.71 1002.29 1002.85 1003.40 1003.93 1004.45 1004.96 1005.47 1005.97 1006.47 1006.97 1007.50 1008.06 1008.66 1009.32 1010.04 1010.84 1011.71 1012.66 1013.67 1014.73 1015.82 1016.92 1018.01 1019.07 1020.07 1021.00 1021.86 1022.64 1023.34 1023.97 1024.54 1025.07 1025.56 1026.01 1026.44 1026.84 1027.20 1027.53
Thickness
5522 5521 5520 5520 5519 5517 5516 5515 5513 5512 5511 5511 5510 5509 5507 5506 5504 5502 5500 5496 5493 5491 5487 5484 5481 5477 5472 5468 5463 5460 5457 5453 5453 5452 5446 5442 5437 5433 5430 5428 5426 5424 5422
5512 5512 5512 5511 5510 5509 5509 5508 5506 5506 5504 5503 5502 5502 5501 5499 5497 5496 5493 5490 5487 5484 5481 5477 5473 5468 5464 5459 5455 5451 5447 5444 5441 5440 5437 5432 5427 5424 5420 5417 5415 5413 5411
5503 5503 5503 5503 5502 5501 5500 5499 5498 5497 5496 5495 5494 5494 5493 5491 5489 5487 5485 5482 5479 5476 5473 5469 5465 5459 5455 5450 5446 5442 5438 5434 5431 5428 5426 5421 5417 5413 5409 5406 5404 5402 5401
5495 5495 5495 5494 5493 5492 5491 5490 5489 5488 5488 5487 5486 5485 5484 5482 5481 5479 5477 5474 5470 5467 5463 5459 5455 5451 5447 5442 5437 5433 5429 5425 5421 5418 5415 5411 5407 5403 5398 5397 5395 5393 5391
5486 5486 5486 5485 5484 5483 5481 5480 5480 5479 5479 5478 5477 5475 5474 5473 5471 5469 5467 5464 5462 5458 5454 5450 5446 5442 5438 5433 5429 5425 5421 5417 5413 5409 5405 5402 5399 5393 5389 5387 5384 5383 5381
5477 5476 5475 5474 5474 5473 5472 5470 5470 5469 5469 5468 5467 5466 5465 5463 5461 5459 5456 5454 5451 5449 5446 5442 5438 5434 5429 5424 5420 5416 5412 5408 5405 5401 5398 5395 5392 5387 5382 5377 5373 5371 5372
5466 5465 5464 5463 5463 5462 5461 5460 5460 5459 5458 5457 5456 5456 5455 5453 5451 5448 5445 5443 5441 5438 5435 5432 5428 5424 5419 5416 5411 5407 5402 5399 5395 5393 5390 5388 5384 5379 5373 5368 5364 5362 5362
5455 5454 5453 5452 5452 5451 5450 5450 5449 5448 5447 5446 5445 5445 5444 5442 5439 5437 5434 5432 5430 5428 5424 5420 5417 5414 5409 5405 5402 5398 5395 5391 5387 5383 5380 5378 5374 5368 5363 5359 5355 5351 5349
5443 5442 5441 5441 5441 5440 5439 5438 5437 5436 5435 5434 5433 5433 5432 5430 5427 5425 5422 5421 5419 5416 5412 5409 5405 5403 5399 5395 5392 5389 5386 5382 5377 5373 5369 5366 5362 5357 5352 5347 5343 5340 5341
5432 5431 5429 5429 5429 5429 5428 5426 5425 5424 5423 5422 5421 5419 5419 5417 5415 5413 5410 5409 5408 5405 5401 5398 5395 5391 5388 5384 5382 5379 5377 5373 5368 5364 5359 5355 5350 5345 5339 5334 5331 5328 5327
5418 5417 5417 5416 5416 5416 5415 5414 5412 5411 5410 5409 5408 5407 5406 5404 5403 5401 5398 5397 5395 5393 5390 5388 5384 5381 5378 5374 5371 5368 5366 5362 5357 5352 5348 5343 5338 5333 5328 5322 5317 5313 5312
5404 5404 5403 5402 5402 5401 5401 5400 5398 5397 5396 5395 5394 5394 5393 5391 5390 5388 5386 5384 5382 5380 5378 5376 5373 5369 5366 5363 5360 5357 5353 5348 5344 5340 5336 5332 5327 5322 5316 5311 5305 5300 5297
5390 5389 5389 5388 5387 5386 5386 5385 5384 5383 5382 5382 5381 5381 5381 5379 5377 5375 5373 5371 5369 5368 5366 5364 5360 5357 5354 5351 5347 5343 5339 5335 5331 5327 5323 5319 5314 5309 5303 5298 5293 5288 5285
5376 5375 5374 5373 5373 5371 5370 5370 5370 5369 5369 5368 5367 5367 5366 5365 5363 5362 5360 5358 5356 5354 5352 5350 5347 5343 5340 5337 5334 5330 5325 5321 5317 5313 5309 5304 5299 5293 5289 5284 5280 5276 5274
5361 5361 5360 5359 5358 5356 5355 5355 5355 5355 5354 5354 5354 5353 5353 5353 5352 5350 5347 5346 5344 5342 5339 5336 5333 5330 5328 5324 5321 5316 5312 5307 5303 5299 5294 5289 5284 5279 5274 5269 5265 5262 5261
5347 5346 5345 5344 5343 5342 5341 5341 5340 5340 5340 5339 5339 5339 5340 5339 5338 5337 5335 5333 5331 5328 5325 5323 5321 5317 5314 5311 5307 5303 5298 5294 5289 5284 5279 5274 5269 5264 5260 5256 5251 5249 5248
5332 5332 5331 5329 5328 5327 5327 5327 5327 5326 5325 5324 5325 5325 5325 5324 5324 5323 5322 5320 5317 5314 5310 5309 5306 5303 5300 5296 5292 5288 5284 5279 5273 5269 5264 5260 5255 5250 5247 5243 5239 5236 5234
5316 5316 5315 5314 5313 5312 5312 5311 5311 5312 5312 5312 5311 5310 5310 5309 5309 5308 5307 5305 5303 5300 5297 5294 5292 5288 5285 5281 5277 5273 5269 5264 5259 5255 5251 5246 5241 5237 5234 5231 5227 5224 5222
5302 5302 5301 5300 5298 5297 5296 5295 5295 5295 5297 5297 5297 5296 5294 5293 5292 5291 5290 5289 5288 5287 5284 5281 5277 5274 5270 5266 5262 5258 5254 5250 5246 5241 5238 5233 5229 5225 5222 5219 5215 5212 5209
5287 5286 5285 5285 5284 5282 5281 5280 5280 5280 5280 5280 5281 5280 5278 5277 5278 5277 5275 5274 5273 5271 5270 5267 5264 5260 5256 5252 5249 5245 5241 5237 5233 5229 5225 5222 5217 5213 5210 5207 5204 5202 5199
5272 5271 5269 5269 5268 5267 5266 5265 5265 5264 5264 5264 5264 5263 5262 5262 5263 5263 5262 5260 5258 5257 5255 5253 5250 5247 5243 5239 5236 5232 5229 5226 5222 5218 5214 5210 5206 5202 5199 5196 5194 5191 5188
5257 5256 5255 5254 5253 5252 5251 5250 5249 5248 5248 5248 5248 5246 5245 5245 5246 5246 5246 5246 5244 5242 5240 5238 5236 5233 5230 5227 5224 5221 5217 5215 5211 5207 5204 5199 5195 5192 5190 5187 5184 5181 5178
5242 5242 5241 5239 5238 5236 5235 5234 5234 5233 5233 5233 5232 5231 5230 5230 5230 5230 5230 5229 5228 5227 5226 5223 5222 5220 5217 5214 5211 5208 5206 5204 5201 5197 5193 5190 5186 5183 5180 5178 5175 5171 5169
5228 5227 5226 5225 5223 5222 5221 5220 5219 5219 5218 5217 5217 5216 5216 5216 5216 5216 5215 5214 5214 5213 5211 5209 5208 5207 5205 5202 5200 5197 5195 5192 5189 5186 5183 5180 5177 5174 5171 5168 5166 5163 5159
5214 5213 5211 5210 5209 5208 5208 5207 5206 5205 5204 5204 5204 5204 5203 5203 5203 5203 5203 5202 5201 5200 5198 5197 5195 5194 5193 5191 5189 5187 5185 5182 5178 5175 5172 5170 5168 5165 5162 5159 5157 5154 5151
5201 5199 5198 5197 5196 5196 5195 5194 5194 5193 5193 5193 5192 5192 5191 5191 5191 5191 5191 5190 5189 5188 5187 5186 5184 5183 5181 5180 5179 5177 5175 5172 5170 5167 5164 5162 5160 5158 5154 5152 5149 5146 5143